Regional Weather Roundup
Issued by NWS

Home | Current Version | Previous Version | Graphics & Text | Print | Product List | Glossary On
Versions: 1 2 3 4 5 6 7 8 9 10 11 12 13 14 15 16 17 18 19 20 21 22 23 24 25 26 27 28 29 30 31 32 33 34 35 36 37 38 39 40 41 42 43 44 45 46 47 48 49 50
000
ASUS43 KBIS 310910
RWRND

NORTH DAKOTA REGIONAL WEATHER ROUNDUP
NATIONAL WEATHER SERVICE BISMARCK ND
400 AM CDT FRI JUL 31 2015

NOTE: "FAIR" INDICATES FEW OR NO CLOUDS BELOW 12,000 FEET WITH NO
SIGNIFICANT WEATHER AND/OR OBSTRUCTIONS TO VISIBILITY.


NDZ001>003-009>011-017-311000-
NORTHWEST NORTH DAKOTA

CITY           SKY/WX    TMP DP  RH WIND       PRES   REMARKS
WILLISTON      CLEAR     55  49  80 SW7       30.16F
MINOT          CLEAR     56  47  71 SW7       30.13R
MINOT AFB      CLEAR     51  51  99 W9        30.12R
$$

NDZ018>021-031>035-040>046-311000-
SOUTHWEST NORTH DAKOTA

CITY           SKY/WX    TMP DP  RH WIND       PRES   REMARKS
BISMARCK       CLEAR     55  51  86 CALM      30.18R
DICKINSON      CLEAR     50  45  83 S9        30.19S
GARRISON         N/A     58  53  84 W3        30.16S
HETTINGER ARPT CLEAR     48  45  89 W3        30.22S
$$

NDZ004>008-012>016-024-026-027-054-311000-
NORTHEAST NORTH DAKOTA

CITY           SKY/WX    TMP DP  RH WIND       PRES   REMARKS
GRAND FORKS    CLEAR     58  52  80 W7        30.02S
GRND FRKS AFB  CLEAR     60  52  76 W8        30.04R
DEVILS LAKE    CLEAR     59  48  67 W9        30.07S
$$

NDZ022-023-025-028>030-036>039-047>053-311000-
SOUTHEAST NORTH DAKOTA

CITY           SKY/WX    TMP DP  RH WIND       PRES   REMARKS
FARGO          CLEAR     58  52  80 W8        30.06R
JAMESTOWN      PTCLDY    57  50  77 W7        30.13R
$$




USA.gov is the U.S. government's official web portal to all federal, state and local government web resources and services.